Date String (YYYY-MM-DD hh:mm:ss) UTC,Instrument flags,Ambient pressure (hPa),Sample flow (lpm),Bypass flow (lpm),Sample temperature (°C),Ambient temperature (°C),ASC tube jacket temperature (°C),LED temperature (°C),Box temperature (°C),Sample RH (%),Span deviation,Mass concentration (μg/m³),Mass concentration (μg/m³),Mass concentration (μg/m³)
DateTimeUTC,F1_M11,P_M11,Q1_M11,Q2_M11,T1_M11,T2_M11,T3_M11,T4_M11,T5_M11,U1_M11,ZSPAN_M11,X2_M11,X0_M11,X1_M11
2021-12-26 04:00:00,,0818.0,5.01,0.00,22.4,21.3,00.0,31.5,24.0,09.9,0000.0,0001.08,0001.61,0000.87
2021-12-26 04:01:00,,0818.0,5.00,0.00,22.4,21.3,00.0,31.5,24.0,09.9,0000.0,0001.05,0001.58,0000.85
2021-12-26 04:02:00,,0817.9,4.99,0.00,22.4,21.3,00.0,31.5,24.0,09.9,0000.0,0001.03,0001.56,0000.83
2021-12-26 04:03:00,,0817.9,5.00,0.00,22.4,21.3,00.0,31.5,24.0,09.9,0000.0,0001.00,0001.51,0000.81
2021-12-26 04:04:00,,0817.8,5.01,0.00,22.4,21.3,00.0,31.4,24.0,09.9,0000.0,0000.98,0001.47,0000.80
2021-12-26 04:05:00,,0817.9,4.99,0.00,22.4,21.3,00.0,31.4,23.9,09.8,0000.0,0000.98,0001.55,0000.79
2021-12-26 04:06:00,,0817.8,5.00,0.00,22.4,21.3,00.0,31.4,23.9,09.7,0000.0,0000.98,0001.55,0000.79
2021-12-26 04:07:00,,0817.9,5.02,0.00,22.3,21.3,00.0,31.4,23.9,09.7,0000.0,0000.96,0001.49,0000.78
2021-12-26 04:08:00,,0817.8,4.98,0.00,22.3,21.2,00.0,31.4,23.9,09.7,0000.0,0000.93,0001.31,0000.77
2021-12-26 04:09:00,,0817.8,5.01,0.00,22.3,21.3,00.0,31.4,23.9,09.8,0000.0,0000.93,0001.31,0000.79
2021-12-26 04:10:00,,0817.8,4.99,0.00,22.3,21.2,00.0,31.4,23.9,09.7,0000.0,0000.94,0001.31,0000.79
2021-12-26 04:11:00,,0817.8,5.01,0.00,22.3,21.3,00.0,31.4,23.9,09.7,0000.0,0000.98,0001.42,0000.79
2021-12-26 04:12:00,,0817.8,5.00,0.00,22.3,21.3,00.0,31.4,23.9,10.0,0000.0,0000.97,0001.40,0000.79
2021-12-26 04:13:00,,0817.7,4.98,0.00,22.3,21.3,00.0,31.4,23.9,10.0,0000.0,0000.98,0001.41,0000.78
2021-12-26 04:14:00,,0817.7,5.01,0.00,22.3,21.3,00.0,31.4,23.9,10.1,0000.0,0000.98,0002.07,0000.78
2021-12-26 04:15:00,,0817.6,4.98,0.00,22.3,21.3,00.0,31.4,23.9,10.2,0000.0,0001.00,0002.44,0000.79
2021-12-26 04:16:00,,0817.6,5.01,0.00,22.3,21.3,00.0,31.4,23.9,10.4,0000.0,0000.98,0002.35,0000.79
2021-12-26 04:17:00,,0817.6,4.99,0.00,22.3,21.3,00.0,31.4,23.9,10.5,0000.0,0000.98,0003.02,0000.80
2021-12-26 04:18:00,,0817.6,5.00,0.00,22.3,21.3,00.0,31.4,23.9,10.1,0000.0,0000.98,0003.23,0000.80
2021-12-26 04:19:00,,0817.7,5.00,0.00,22.3,21.2,00.0,31.4,23.9,09.9,0000.0,0000.98,0003.22,0000.80
2021-12-26 04:20:00,,0817.6,4.98,0.00,22.2,21.2,00.0,31.3,23.8,09.8,0000.0,0000.97,0003.21,0000.79
2021-12-26 04:21:00,,0817.6,5.00,0.00,22.2,21.1,00.0,31.3,23.8,09.8,0000.0,0000.95,0003.20,0000.79
2021-12-26 04:22:00,,0817.6,5.01,0.00,22.2,21.1,00.0,31.3,23.8,09.8,0000.0,0000.91,0003.10,0000.78
2021-12-26 04:23:00,,0817.6,4.99,0.00,22.2,21.1,00.0,31.3,23.8,09.8,0000.0,0000.89,0003.04,0000.77
2021-12-26 04:24:00,,0817.6,5.00,0.00,22.2,21.1,00.0,31.3,23.8,09.9,0000.0,0000.88,0003.00,0000.78
2021-12-26 04:25:00,,0817.6,5.00,0.00,22.2,21.1,00.0,31.3,23.8,09.8,0000.0,0000.89,0002.52,0000.77
2021-12-26 04:26:00,,0817.7,5.00,0.00,22.2,21.1,00.0,31.3,23.8,09.7,0000.0,0000.88,0002.14,0000.77
2021-12-26 04:27:00,,0817.7,5.00,0.00,22.2,21.1,00.0,31.3,23.8,09.7,0000.0,0000.88,0002.16,0000.76
2021-12-26 04:28:00,,0817.7,5.00,0.00,22.2,21.1,00.0,31.3,23.7,09.7,0000.0,0000.86,0001.64,0000.75
2021-12-26 04:29:00,,0817.6,4.99,0.00,22.2,21.1,00.0,31.3,23.7,09.6,0000.0,0000.87,0001.26,0000.76
2021-12-26 04:30:00,,0817.6,5.01,0.00,22.1,21.1,00.0,31.3,23.7,09.6,0000.0,0000.91,0001.34,0000.78
2021-12-26 04:31:00,,0817.5,4.99,0.00,22.2,21.1,00.0,31.3,23.8,09.6,0000.0,0000.96,0001.43,0000.80
2021-12-26 04:32:00,,0817.6,4.99,0.00,22.1,21.1,00.0,31.2,23.7,09.7,0000.0,0001.00,0001.49,0000.82
2021-12-26 04:33:00,,0817.6,5.01,0.00,22.1,21.1,00.0,31.2,23.8,09.7,0000.0,0001.02,0001.49,0000.84
2021-12-26 04:34:00,,0817.5,5.00,0.00,22.1,21.1,00.0,31.2,23.8,09.7,0000.0,0001.05,0001.54,0000.86
2021-12-26 04:35:00,,0817.6,4.99,0.00,22.2,21.5,00.0,31.3,24.0,09.7,0000.0,0001.11,0001.73,0000.88
2021-12-26 04:36:00,,0817.6,5.00,0.00,22.3,22.2,00.0,31.3,24.2,09.6,0000.0,0001.11,0001.86,0000.90
2021-12-26 04:37:00,,0817.5,5.00,0.00,22.4,22.8,00.0,31.3,24.4,09.6,0000.0,0001.12,0002.29,0000.92
2021-12-26 04:38:00,,0817.5,5.01,0.00,22.5,22.8,00.0,31.4,24.5,09.5,0000.0,0001.15,0002.30,0000.96
2021-12-26 04:39:00,,0817.6,5.00,0.00,22.5,22.6,00.0,31.4,24.4,09.5,0000.0,0001.19,0002.33,0000.99
2021-12-26 04:40:00,,0817.6,5.01,0.00,22.5,22.5,00.0,31.4,24.3,09.6,0000.0,0001.23,0002.37,0001.01
2021-12-26 04:41:00,,0817.5,4.99,0.00,22.5,22.3,00.0,31.4,24.3,09.6,0000.0,0001.26,0002.39,0001.05
2021-12-26 04:42:00,,0817.5,4.99,0.00,22.5,22.2,00.0,31.4,24.3,09.6,0000.0,0001.26,0002.34,0001.09
2021-12-26 04:43:00,,0817.6,5.01,0.00,22.5,22.0,00.0,31.4,24.2,09.6,0000.0,0001.28,0002.35,0001.12
2021-12-26 04:44:00,,0817.5,5.00,0.00,22.5,21.9,00.0,31.4,24.2,09.7,0000.0,0001.30,0002.39,0001.16
2021-12-26 04:45:00,,0817.5,4.99,0.00,22.5,21.9,00.0,31.4,24.2,09.7,0000.0,0001.34,0002.54,0001.20
2021-12-26 04:46:00,,0817.5,5.01,0.00,22.5,21.8,00.0,31.4,24.2,09.7,0000.0,0001.35,0002.53,0001.24
2021-12-26 04:47:00,,0817.5,5.00,0.00,22.5,21.8,00.0,31.4,24.2,09.7,0000.0,0001.40,0002.56,0001.28
2021-12-26 04:48:00,,0817.4,5.01,0.00,22.5,21.7,00.0,31.5,24.2,09.7,0000.0,0001.44,0002.00,0001.32
2021-12-26 04:49:00,,0817.5,5.00,0.00,22.5,21.7,00.0,31.5,24.2,09.7,0000.0,0001.47,0002.99,0001.34
2021-12-26 04:50:00,,0817.5,5.00,0.00,22.5,21.6,00.0,31.5,24.1,09.7,0000.0,0001.50,0003.22,0001.37
2021-12-26 04:51:00,,0817.4,5.00,0.00,22.5,21.6,00.0,31.5,24.1,09.7,0000.0,0001.50,0003.23,0001.38
2021-12-26 04:52:00,,0817.5,5.00,0.00,22.4,21.6,00.0,31.5,24.1,09.7,0000.0,0001.49,0003.22,0001.37
2021-12-26 04:53:00,,0817.4,4.99,0.00,22.4,21.6,00.0,31.5,24.1,09.7,0000.0,0001.48,0003.24,0001.35
2021-12-26 04:54:00,,0817.4,5.00,0.00,22.4,21.5,00.0,31.4,24.0,09.7,0000.0,0001.48,0003.23,0001.34
2021-12-26 04:55:00,,0817.4,5.01,0.00,22.4,21.6,00.0,31.4,24.1,09.8,0000.0,0001.49,0003.24,0001.34
2021-12-26 04:56:00,,0817.4,4.99,0.00,22.4,21.6,00.0,31.4,24.0,09.8,0000.0,0001.49,0003.17,0001.34
2021-12-26 04:57:00,,0817.4,4.99,0.00,22.4,21.5,00.0,31.4,24.0,09.8,0000.0,0001.46,0003.07,0001.31
2021-12-26 04:58:00,,0817.3,5.01,0.00,22.4,21.5,00.0,31.4,24.0,09.8,0000.0,0001.46,0003.27,0001.29
2021-12-26 04:59:00,,0817.3,4.99,0.00,22.4,21.5,00.0,31.4,24.0,09.8,0000.0,0001.44,0003.28,0001.28
